Tracking 23885 objects as of 27-Nov-2021
HD Live streaming from Space Station
objects crossing your sky now

SL-12 R/B(2)

Track SL-12 R/B(2) now!


NORAD ID: 20502
Int'l Code: 1990-016D
Perigee: 35,702.9 km
Apogee: 36,029.1 km
Inclination: 14.1 °
Period: 1,439.8 minutes
Semi major axis: 42237 km
RCS: 3.9952 m2 (large)
Launch date: February 15, 1990
Source: Commonwealth of Independent States (former USSR) (CIS)
Launch site: TYURATAM MISSILE AND SPACE COMPLEX (TTMTR)

Note: This is a ROCKET BODY
aabbcc
Your satellite tracking list
Your tracking list is empty




NASA's NSSDC Master Catalog

Two Line Element Set (TLE):
1 20502U 90016D   21330.53890920 -.00000189  00000-0  00000-0 0  9999
2 20502  14.1325 347.7070 0038611 196.3088 352.0401  1.00014511116128
Source of the keplerian elements: AFSPC